257  
SXUS52 KTAE 190616  
OSOTAE  
OSOTAE  
NORTH FLORIDA/SOUTH ALABAMA/SOUTHWEST GEORGIA WEATHER ROUNDUP  
NATIONAL WEATHER SERVICE TALLAHASSEE FLORIDA  
200 AM EDT TUE MAR 19 2019  
 
NOTE: "FAIR" INDICATES FEW OR NO CLOUDS BELOW 12,000 FEET WITH NO  
SIGNIFICANT WEATHER AND/OR OBSTRUCTIONS TO VISIBILITY.  
 
!FLZ017-115-028-034-025-190700   
..NORTH FLORIDA
 
 
 
CITY SKY/WX TMP DP RH WIND PRES REMARKS  
TALL INTL ARPT FAIR 57 36 45 N8 30.21F  
FSU LOVE BLDG N/A 57 34 41 NE5 N/A  
APALACHICOLA FAIR 56 36 47 N8 30.20F  
PERRY FAIR 54 41 61 N5 30.20F  
CROSS CITY FAIR 51 45 80 N3 30.18F  
JACKSONVILLE CLOUDY 51 46 83 CALM 30.18S  

 
 
!FLZ112-006-005-002-011-190700   
..FLORIDA PANHANDLE
 
 
 
CITY SKY/WX TMP DP RH WIND PRES REMARKS  
MARIANNA FAIR 54 32 43 N13 30.24S  
BONIFAY NOT AVBL  
PANAMA CITY NW FAIR 55 35 47 N9 30.21F  
TYNDALL AFB FAIR 58 34 41 N9 30.21F  
TYND DRONE APT FAIR 57 34 41 NE12 30.21F  
DE FUNIAK SPR FAIR 54 29 37 N10G17 30.25  
EGLIN AFB FAIR 56 30 37 N14 30.22F  
DESTIN FAIR 57 33 40 N12 30.23S  
HURLBURT FAIR 56 30 37 NE15 30.22F  
CRESTVIEW FAIR 54 30 40 NE9 30.26F  
PENSACOLA FAIR 56 34 43 N9 30.24F  

 
 
!ALZ063-066-190700   
..SOUTH ALABAMA
 
 
 
CITY SKY/WX TMP DP RH WIND PRES REMARKS  
DOTHAN FAIR 51 26 37 N7 30.29S  
OZARK CAIRNS FAIR 51 27 39 N8 30.26S  
FT RUCKER HELI FAIR 50 29 44 N3 30.26S  
RUCKER HELI 3 FAIR 51 26 38 NE7 30.25F  
RUCKER HELI 2 FAIR 52 27 38 N7 30.25F  
FLORALA APT FAIR 50 31 48 NE8 30.27F  
ANDALUSIA FAIR 54 27 35 NE7 30.26F  
TROY FAIR 49 23 36 N10 30.29F WCI 45  
EUFALA NOT AVBL  
MOBILE FAIR 52 36 54 N7 30.27S  

 
 
!GAZ120>161-190700   
..SOUTHWEST AND SOUTH CENTRAL GEORGIA
 
 
 
CITY SKY/WX TMP DP RH WIND PRES REMARKS  
THOMASVILLE FAIR 54 32 43 N9 30.23F  
BAINBRIDGE N/A 55 25 30 MISG 30.25F  
MOODY AFB FAIR 53 33 45 N10 30.21S  
VALDOSTA FAIR 55 31 39 N13 30.22F  
MOULTRIE FAIR 54 28 37 N10 30.24F  
BLAKELY FAIR 50 32 50 CALM 30.27S  
ALBANY FAIR 54 22 28 N9 30.28R  
TIFTON FAIR 53 19 26 N7 30.24  
FITZGERALD FAIR 52 25 34 N8 30.27S  
CORDELE FAIR 51 17 26 N8 30.28S  
AMERICUS FAIR 52 21 30 N7 30.29S  
HOMERVILLE NOT AVBL  

 
 
!GMZ750-755-770-775-190700   
..COASTAL AND BUOY OBS
 
 
 
STATION/POSITION TIME TEMP WIND PRES VSBY WAVE  
AIR SEA DIR/SP/G HT/PER  
(UTC) (F) (DEG/KT/KT) (MB) (MI) (FT/S)  
KEATON BEACH 0600 56 10/ 5/ 8 1022.1F  
CEDAR KEY 0600 58 40/ 5/ 7 1021.5F  
C TOWER 0600 62 30/ 18/ 22 1021.8F  
APALACHICOLA BUO NOT AVBL  
PANAMA CITY BUOY NOT AVBL  
MOBILE BUOY 0550 40/ 19/ 23 1023.5R 6/ 6  
ORANGE BCH AL BU 0550 1023.7F 3/ 4  

 
 
 
CLICK HERE TO GO TO PREVIOUS BULLETINS.

The Nexlab FL Page
The Nexlab GA Page
The Nexlab AL Page Main Text Page